This is the latest recevied weather packets stored in our database for station/object G4KVI. If no packets are shown the sender has not sent any weather packets the latest 10 day(s).
| Time | Temp. | Humidity | Pressure | Rain* | Wind** | Luminosity | Snow |
|---|---|---|---|---|---|---|---|
| 1788460804 | 18.89° C | 87% | 1019.4 hPa | 0 mm | - | 3 W/m² | - |
| 1788460504 | 18.89° C | 86% | 1019.1 hPa | 0 mm | - | 8 W/m² | - |
| 1788460204 | 19.44° C | 86% | 1019 hPa | 0 mm | - | 12 W/m² | - |
| 1788459904 | 19.44° C | 86% | 1019 hPa | 0 mm | - | 17 W/m² | - |
| 1788459604 | 19.44° C | 86% | 1019.1 hPa | 0 mm | - | 18 W/m² | - |
| 1788459304 | 19.44° C | 86% | 1019 hPa | 0 mm | - | 21 W/m² | - |
| 1788459004 | 19.44° C | 85% | 1019.1 hPa | 0 mm | - | 29 W/m² | - |
| 1788458704 | 20° C | 83% | 1019.1 hPa | 0 mm | - | 19 W/m² | - |
| 1788458404 | 20.56° C | 82% | 1019 hPa | 0 mm | - | 28 W/m² | - |
| 1788458104 | 20.56° C | 81% | 1019 hPa | 0 mm | - | 33 W/m² | - |
| 1788457804 | 20.56° C | 81% | 1018.9 hPa | 0 mm | - | 59 W/m² | - |
| 1788457504 | 21.11° C | 79% | 1018.8 hPa | 0 mm | - | 72 W/m² | - |
| 1788457204 | 21.11° C | 79% | 1018.8 hPa | 0 mm | - | 83 W/m² | - |
| 1788456904 | 21.11° C | 78% | 1018.9 hPa | 0 mm | - | 85 W/m² | - |
| 1788456604 | 21.11° C | 78% | 1018.8 hPa | 0 mm | - | 108 W/m² | - |
| 1788456304 | 21.11° C | 78% | 1018.9 hPa | 0 mm | - | 85 W/m² | - |
| 1788456004 | 21.11° C | 77% | 1019 hPa | 0 mm | - | 52 W/m² | - |
| 1788455704 | 21.11° C | 77% | 1018.8 hPa | 0 mm | - | 73 W/m² | - |
| 1788455404 | 21.67° C | 76% | 1018.8 hPa | 0 mm | - | 61 W/m² | - |
| 1788455104 | 21.67° C | 76% | 1018.9 hPa | 0 mm | - | 59 W/m² | - |
| 1788454804 | 21.67° C | 75% | 1019.1 hPa | 0 mm | - | 65 W/m² | - |
| 1788454504 | 21.67° C | 74% | 1019 hPa | 0 mm | - | 34 W/m² | - |
| 1788454204 | 22.22° C | 73% | 1019.1 hPa | 0 mm | - | 63 W/m² | - |
| 1788453904 | 22.22° C | 72% | 1019 hPa | 0 mm | - | 119 W/m² | - |
| 1788453604 | 22.78° C | 70% | 1018.8 hPa | 0 mm | - | 98 W/m² | - |
* Rain latest hour (hover to see other rain measurements)
** Current wind speed in m/s (hover to see current wind gust speed)